West Paducah, KY

11:31 PM CST on February 12, 2016 (GMT -0600)
Barkley Regional

Weather History for KPAH - November, 2013

Change the Weather History Date:

Saturday, November 23, 2013

  Actual Average Record
Temperature  
Mean Temperature 36 °F 45 °F  
Max Temperature 47 °F 55 °F 70 °F (2003)
Min Temperature 24 °F 35 °F 15 °F (1950)
Degree Days  
Heating Degree Days 29 20  
Month to date heating degree days 372 358  
Since 1 July heating degree days 581 625  
Cooling Degree Days 0 0  
Month to date cooling degree days 0 0  
Year to date cooling degree days 1478 1538  
Moisture  
Dew Point 23 °F    
Average Humidity 58    
Maximum Humidity 82    
Minimum Humidity 33    
Precipitation  
Precipitation 0.00 in 0.15 in 4.06 in (1951)
Month to date precipitation 2.24 3.19  
Year to date precipitation 52.17 43.38  
Snow  
Snow 0.00 in 0.00 in 1.30 in (1950)
Month to date snowfall T 0.0  
Since 1 July snowfall T 0.1  
Since 1 September snowfall T 0.1  
Snow Depth 0.00 in    
Sea Level Pressure  
Sea Level Pressure 30.54 in    
Wind  
Wind Speed 15 mph (North)    
Max Wind Speed 24 mph    
Max Gust Speed 30 mph    
Visibility 10 miles    
Events      
T = Trace of Precipitation, MM = Missing Value Source: NWS Daily Summary

Daily Weather History Graph

Daily Weather History Graph

Search for Another Location

Airport or City:

Trip Planner

Search our weather history database for the weather conditions in past years. The results will help you decide how hot, cold, wet, or windy it might be!

Date:

Astronomy

Nov. 23, 2013 Rise Set
Actual Time 6:42 AM CST 4:40 PM CST
Civil Twilight 6:14 AM CST 5:08 PM CST
Nautical Twilight 5:42 AM CST 5:40 PM CST
Astronomical Twilight 5:11 AM CST 6:11 PM CST
Moon 10:05 PM CST (11/23) 11:01 AM CST (11/23)
Length of Visible Light 10h 54m
Length of Day
9h 58m
Waning Gibbous, 69% of the Moon is Illuminated
Nov 23
Waning Gibbous
Nov 25
Last Quarter
Dec 2
New
Dec 9
First Quarter
Dec 17
Full

Hourly Weather History & Observations

Time (CST) Temp. Windchill Dew Point Humidity Pressure Visibility Wind Dir Wind Speed Gust Speed Precip Events Conditions
12:12 AM 41.0 °F 33.9 °F 35.1 °F 79% 30.43 in 10.0 mi NNE 12.7 mph - N/A   Overcast
12:31 AM 41.0 °F 33.9 °F 34.0 °F 76% 30.43 in 10.0 mi NNE 12.7 mph - N/A   Overcast
12:53 AM 41.0 °F 34.3 °F 34.0 °F 76% 30.44 in 10.0 mi North 11.5 mph - N/A   Overcast
1:53 AM 41.0 °F 34.3 °F 34.0 °F 76% 30.44 in 10.0 mi North 11.5 mph - N/A   Overcast
2:53 AM 39.9 °F 32.5 °F 32.0 °F 73% 30.45 in 10.0 mi North 12.7 mph - N/A   Overcast
3:53 AM 39.9 °F 32.1 °F 32.0 °F 73% 30.46 in 10.0 mi North 13.8 mph - N/A   Overcast
4:53 AM 39.0 °F 30.3 °F 30.9 °F 73% 30.47 in 10.0 mi North 16.1 mph - N/A   Overcast
5:53 AM 37.9 °F 29.2 °F 30.0 °F 73% 30.48 in 10.0 mi North 15.0 mph - N/A   Overcast
6:53 AM 37.0 °F 28.9 °F 30.0 °F 76% 30.51 in 10.0 mi North 12.7 mph - N/A   Mostly Cloudy
7:23 AM 37.0 °F 29.8 °F 30.0 °F 76% 30.51 in 10.0 mi North 10.4 mph - N/A   Partly Cloudy
7:53 AM 36.0 °F 28.0 °F 30.0 °F 79% 30.53 in 10.0 mi North 11.5 mph - N/A   Scattered Clouds
8:53 AM 37.9 °F 28.9 °F 28.0 °F 68% 30.55 in 10.0 mi North 16.1 mph - N/A   Clear
9:53 AM 42.1 °F 34.5 °F 25.0 °F 51% 30.55 in 10.0 mi North 15.0 mph - N/A   Clear
10:53 AM 43.0 °F 34.8 °F 17.1 °F 35% 30.54 in 10.0 mi North 18.4 mph - N/A   Clear
11:53 AM 43.0 °F 34.8 °F 16.0 °F 34% 30.51 in 10.0 mi North 18.4 mph - N/A   Clear
12:53 PM 43.0 °F 35.7 °F 17.1 °F 35% 30.51 in 10.0 mi North 15.0 mph - N/A   Clear
1:53 PM 45.0 °F 37.6 °F 19.9 °F 37% 30.50 in 10.0 mi North 17.3 mph - N/A   Clear
2:53 PM 42.1 °F 32.8 °F 21.0 °F 43% 30.53 in 10.0 mi North 21.9 mph 27.6 mph N/A   Clear
3:53 PM 37.0 °F 26.7 °F 18.0 °F 46% 30.56 in 10.0 mi North 19.6 mph 27.6 mph N/A   Clear
4:53 PM 34.0 °F 23.4 °F 17.1 °F 50% 30.57 in 10.0 mi North 17.3 mph - N/A   Clear
5:53 PM 32.0 °F 20.8 °F 15.1 °F 50% 30.59 in 10.0 mi North 17.3 mph 26.5 mph N/A   Clear
6:53 PM 30.9 °F 21.7 °F 17.1 °F 57% 30.61 in 10.0 mi North 11.5 mph - N/A   Partly Cloudy
7:53 PM 30.9 °F 20.2 °F 17.1 °F 57% 30.63 in 10.0 mi North 15.0 mph - N/A   Mostly Cloudy
8:53 PM 27.0 °F 14.7 °F 14.0 °F 58% 30.65 in 10.0 mi North 16.1 mph 26.5 mph N/A   Clear
9:53 PM 27.0 °F 15.6 °F 14.0 °F 58% 30.65 in 10.0 mi NNE 13.8 mph - N/A   Mostly Cloudy
10:53 PM 25.0 °F 12.6 °F 12.0 °F 58% 30.66 in 10.0 mi North 15.0 mph - N/A   Mostly Cloudy
11:53 PM 25.0 °F 12.6 °F 12.0 °F 58% 30.67 in 10.0 mi NNE 15.0 mph - N/A   Mostly Cloudy